Regional Weather Roundup
Issued by NWS

Home | Current Version | Previous Version | Text Only | Print | Product List | Glossary Off
Versions: 1 2 3 4 5 6 7 8 9 10 11 12 13 14 15 16 17 18 19 20 21 22 23 24 25 26 27

000
ASUS45 KSLC 261710
RWRUT

UTAH REGIONAL WEATHER ROUNDUP
NATIONAL WEATHER SERVICE SALT LAKE CITY UT
1100 AM MDT WED JUL 26 2017

UTZ001>011-023>025-261800-

NORTHERN UTAH

CITY           SKY/WX    TMP DP  RH WIND       PRES   REMARKS
BRIGHAM CITY   MOSUNNY   74  56  52 CALM      30.23S
DUGWAY         MOSUNNY   76  60  58 S5        30.22
HILL AFB       MOSUNNY   81  64  57 E5        30.24S
LOGAN          CLOUDY    67  63  87 CALM      30.24R
OGDEN          MOSUNNY   74  61  63 SE7       30.21S
SALT LAKE CITY PTSUNNY   77  63  61 E5        30.20S
TOOELE VALLEY  SUNNY     79  59  50 S9        30.21S
WENDOVER       SUNNY     77  57  50 S5        30.21S
HEBER CITY     MOSUNNY   73  57  56 CALM      30.27S
WEST JORDAN    MOSUNNY   75  68  77 SE13      30.24R

$$

UTZ011>015-024>027-261800-

CENTRAL/NORTHEAST UTAH

CITY           SKY/WX    TMP DP  RH WIND       PRES   REMARKS
PROVO AIRPORT  SUNNY     75  63  66 VRB5      30.25S HAZE
MOAB/CANYONLAN SUNNY     78  66  66 NW6       30.21R
DELTA          SUNNY     75  57  53 S9        30.25S
PRICE          SUNNY     72  60  66 SE5       30.31R
RICHFIELD      SUNNY     73  61  64 SW3       30.29S
ROOSEVELT      CLOUDY    72  61  68 CALM      30.29S
VERNAL         CLOUDY    73  63  70 CALM      30.27S

$$

UTZ013>016-019>022-027-261800-

SOUTHERN UTAH

CITY           SKY/WX    TMP DP  RH WIND       PRES   REMARKS
BRYCE CANYON   SUNNY     69  56  62 VRB3      30.44R
CEDAR CITY     SUNNY     75  58  55 VRB5      30.30R
MILFORD        SUNNY     77  59  53 S13       30.25F
ST GEORGE      MOSUNNY   78  66  66 CALM      30.17S
HANKSVILLE     SUNNY     77  63  61 CALM      30.24S
KANAB          SUNNY     75  61  60 S7        30.32S
BLANDING       SUNNY     74  57  56 W6        30.39S

$$

REGIONAL REPORTS     COLORADO/ARIZONA

CITY           SKY/WX    TMP DP  RH WIND       PRES   REMARKS
CRAIG, CO      CLOUDY    74  57  55 CALM      30.32S
GRAND JUNCTION CLOUDY    76  65  68 CALM      30.24F
RIFLE, CO      CLOUDY    69  63  81 VRB3      30.30S
MONTROSE, CO   MOSUNNY   76  60  57 NE5       30.30F
CORTEZ, CO     SUNNY     78  58  49 VRB3      30.31S
COLORADO CITY    N/A     77  63  61 SE3       30.30S
PAGE, AZ       SUNNY     78  60  53 VRB3      30.23F
GRAND CANYON   SUNNY     72  54  53 W6        30.40R
KINGMAN, AZ    PTSUNNY   82  61  48 CALM      30.17F
FLAGSTAFF, AZ  SUNNY     71  53  52 W7        30.42S

$$

REGIONAL REPORTS    NEVADA/IDAHO/WYOMING

CITY           SKY/WX    TMP DP  RH WIND       PRES   REMARKS
LAS VEGAS, NV  PTSUNNY   85  66  53 VRB7      30.09S
ELY, NY        SUNNY     70  52  52 MISG      30.33F
ELKO, NV       SUNNY     76  48  37 CALM      30.23F
POCATELLO, ID  CLOUDY    67  60  78 NE6       30.25R
BURLEY, ID     SUNNY     77  55  46 E12       30.18S
FORT BRIDGER,  CLOUDY    69  55  61 W5        30.39F
EVANSTON, WY   CLOUDY    64  58  80 SW12      30.38R
ROCK SPRINGS,  SUNNY     70  52  52 SE3       30.35S
KEMMERER, WY     N/A     70  50  49 CALM      30.38F

$$




USA.gov is the U.S. government's official web portal to all federal, state and local government web resources and services.